| time (UTC) | temp C | wind direction | speed KPH | gust KPH | rain 1hr cm | rain 24hr cm | rain mn cm | humidity % | barometer mb |
| 20260504214508 | 22 | 212 | 1.6 | 4.8 | 0.00 | 0.00 | 0.00 | 56 | 1011.0 |
| 20260504213031 | 21 | 96 | 1.6 | 6.4 | 0.00 | 0.00 | 0.00 | 56 | 1011.2 |
| 20260504211519 | 21 | 88 | 3.2 | 8.0 | 0.00 | 0.00 | 0.00 | 56 | 1011.3 |
| 20260504210027 | 21 | 74 | 3.2 | 6.4 | 0.00 | 0.00 | 0.00 | 57 | 1011.3 |
| 20260504204527 | 22 | 107 | 0.0 | 3.2 | 0.00 | 0.00 | 0.00 | 56 | 1011.4 |
| 20260504203024 | 22 | 291 | 3.2 | 4.8 | 0.00 | 0.00 | 0.00 | 55 | 1011.6 |
| 20260504201522 | 21 | 352 | 3.2 | 4.8 | 0.00 | 0.00 | 0.00 | 58 | 1011.6 |
| 20260504200022 | 20 | 244 | 1.6 | 3.2 | 0.00 | 0.00 | 0.00 | 62 | 1011.7 |
| 20260504194524 | 20 | 115 | 1.6 | 4.8 | 0.00 | 0.00 | 0.00 | 61 | 1011.7 |
| 20260504193028 | 20 | 100 | 3.2 | 3.2 | 0.00 | 0.00 | 0.00 | 61 | 1011.7 |
| 20260504191525 | 20 | 205 | 1.6 | 4.8 | 0.00 | 0.00 | 0.00 | 55 | 1011.7 |
| 20260504190016 | 20 | 350 | 3.2 | 6.4 | 0.00 | 0.00 | 0.00 | 56 | 1011.8 |
| 20260504184524 | 20 | 95 | 0.0 | 4.8 | 0.00 | 0.00 | 0.00 | 64 | 1011.9 |
| 20260504183028 | 19 | 259 | 3.2 | 4.8 | 0.00 | 0.00 | 0.00 | 60 | 1011.8 |
| 20260504181513 | 18 | 281 | 3.2 | 4.8 | 0.00 | 0.00 | 0.00 | 63 | 1011.9 |
| 20260504180018 | 17 | 281 | 3.2 | 11.3 | 0.00 | 0.00 | 0.00 | 64 | 1011.8 |
| 20260504174522 | 17 | 275 | 4.8 | 9.7 | 0.00 | 0.00 | 0.00 | 67 | 1011.8 |
| 20260504173013 | 16 | 280 | 1.6 | 11.3 | 0.00 | 0.00 | 0.00 | 71 | 1011.8 |
| 20260504171517 | 16 | 270 | 4.8 | 11.3 | 0.00 | 0.00 | 0.00 | 72 | 1011.9 |
| 20260504081519 | 10 | 310 | 0.0 | 0.0 | 0.00 | 0.00 | 0.00 | 89 | 1010.8 |
| 20260504050017 | 11 | 277 | 0.0 | 0.0 | 0.00 | 0.00 | 0.00 | 86 | 1010.7 |
| 20260504044535 | 11 | 277 | 0.0 | 0.0 | 0.00 | 0.00 | 0.00 | 85 | 1010.8 |
| 20260504043023 | 12 | 276 | 0.0 | 0.0 | 0.00 | 0.00 | 0.00 | 85 | 1010.6 |
| 20260504041525 | 12 | 276 | 0.0 | 1.6 | 0.00 | 0.00 | 0.00 | 82 | 1010.7 |
| 20260504040012 | 13 | 280 | 0.0 | 0.0 | 0.00 | 0.00 | 0.00 | 80 | 1010.6 |
| 20260504034524 | 13 | 280 | 0.0 | 0.0 | 0.00 | 0.00 | 0.00 | 76 | 1010.6 |
| 20260504033035 | 15 | 280 | 0.0 | 0.0 | 0.00 | 0.00 | 0.00 | 73 | 1010.7 |
| 20260504031528 | 16 | 280 | 0.0 | 0.0 | 0.00 | 0.00 | 0.00 | 69 | 1010.7 |
| 20260504030009 | 16 | 280 | 0.0 | 0.0 | 0.00 | 0.00 | 0.00 | 65 | 1010.6 |
| 20260504024520 | 17 | 280 | 0.0 | 0.0 | 0.00 | 0.00 | 0.00 | 64 | 1010.8 |
| 20260504023022 | 17 | 280 | 0.0 | 0.0 | 0.00 | 0.00 | 0.00 | 63 | 1010.8 |
| 20260504021531 | 17 | 280 | 0.0 | 3.2 | 0.00 | 0.00 | 0.00 | 64 | 1010.9 |
| 20260504020014 | 17 | 38 | 0.0 | 9.7 | 0.00 | 0.00 | 0.00 | 61 | 1011.1 |
| 20260504014515 | 18 | 259 | 1.6 | 6.4 | 0.00 | 0.00 | 0.00 | 62 | 1011.2 |
| 20260504013028 | 18 | 360 | 0.0 | 3.2 | 0.00 | 0.00 | 0.00 | 62 | 1011.3 |
| 20260504011524 | 18 | 282 | 0.0 | 9.7 | 0.00 | 0.00 | 0.00 | 64 | 1011.6 |
| 20260504010009 | 18 | 254 | 3.2 | 12.9 | 0.00 | 0.00 | 0.00 | 64 | 1011.6 |
| 20260504004513 | 18 | 288 | 0.0 | 8.0 | 0.00 | 0.00 | 0.00 | 66 | 1011.8 |
| 20260504003015 | 17 | 245 | 3.2 | 11.3 | 0.00 | 0.00 | 0.00 | 66 | 1011.9 |
| 20260504001522 | 17 | 272 | 8.0 | 16.1 | 0.00 | 0.00 | 0.00 | 66 | 1012.0 |
| 20260504000027 | 17 | 267 | 4.8 | 12.9 | 0.00 | 0.00 | 0.00 | 68 | 1012.1 |
| 20260503234511 | 17 | 274 | 8.0 | 16.1 | 0.00 | 0.00 | 0.00 | 67 | 1012.3 |
| 20260503233013 | 17 | 266 | 8.0 | 12.9 | 0.00 | 0.00 | 0.00 | 69 | 1012.3 |
| 20260503231520 | 17 | 301 | 3.2 | 16.1 | 0.00 | 0.00 | 0.00 | 71 | 1012.7 |
| 20260503230026 | 16 | 262 | 6.4 | 17.7 | 0.00 | 0.00 | 0.00 | 71 | 1012.9 |
| 20260503224507 | 16 | 265 | 9.7 | 24.1 | 0.00 | 0.00 | 0.00 | 72 | 1013.1 |
| 20260503223013 | 16 | 292 | 8.0 | 16.1 | 0.00 | 0.00 | 0.00 | 71 | 1013.3 |
| 20260503221529 | 17 | 279 | 6.4 | 12.9 | 0.00 | 0.00 | 0.00 | 70 | 1013.4 |
| 20260503220022 | 17 | 241 | 6.4 | 16.1 | 0.00 | 0.00 | 0.00 | 72 | 1013.6 |